Temp
55 55 55 55 55 55 54 54 54 54 54 54 54 55 55 55 54 52 53 60 58 53 58 66 67 60 62 61 53 59 62 62 60 53 54 55 55 59 59 60 57 55 52 53 53 50 49 74 73 62 61 62 72 68
54 54 54 55 55 54 54 54 54 53 53 54 54 54 55 55 54 54 55 63 66 57 57 66 68 70 68 67 59 60 59 59 60 56 57 57 56 58 56 52 64 56 60 57 59 56 66 68 67 70 65 70 70 69
54 54 54 54 54 54 54 54 54 54 54 54 54 54 54 54 53 53 51 57 59 57 61 62 64 72 74 71 74 56 61 62 59 62 58 58 55 60 53 55 59 62 67 60 62 65 66 69 69 68 69 70 72 72
54 54 54 54 54 54 54 54 53 53 54 54 53 54 54 53 53 53 50 57 58 58 52 61 76 69 77 73 72 68 64 64 62 62 57 55 54 62 57 57 57 60 63 59 60 63 65 65 63 65 71 72 73 74
53 54 53 53 54 54 54 53 53 53 53 53 53 53 53 53 52 52 54 57 62 57 50 54 65 73 74 69 69 68 63 60 59 57 55 53 60 59 62 61 59 60 57 53 52 58 59 58 62 67 68 72 73 71
53 53 53 53 53 53 53 53 53 53 53 53 53 53 52 52 52 53 54 62 61 61 54 52 68 68 71 69 66 63 62 59 59 57 57 61 65 60 55 54 58 65 62 63 57 67 66 63 62 65 65 73 74 73
52 53 53 53 53 53 53 53 53 53 53 52 52 52 52 51 51 49 49 54 54 55 53 53 57 68 71 67 64 62 63 61 60 58 57 59 61 61 56 52 63 65 68 67 67 69 64 68 63 67 66 66 71 75
52 52 52 53 53 53 53 53 53 52 52 52 52 51 51 51 51 49 57 57 56 55 58 51 54 60 69 60 58 65 60 60 59 58 59 57 60 59 52 60 63 66 67 68 67 69 67 69 68 68 68 68 65 63
52 52 52 52 52 53 53 53 53 52 52 52 51 51 51 53 55 58 59 59 59 55 49 55 52 47 59 62 62 61 62 55 62 57 59 59 55 51 59 60 62 63 63 64 67 69 69 67 67 68 67 65 62 64
51 51 52 52 52 52 52 53 53 52 51 51 50 52 50 59 59 59 57 53 54 56 55 51 60 49 50 54 52 51 55 55 49 57 62 57 55 61 67 66 64 65 67 67 62 60 63 63 65 63 66 65 63 61
51 51 51 52 52 52 52 52 53 52 51 51 51 52 59 58 59 54 49 49 53 51 57 58 59 50 59 48 48 51 48 55 46 54 55 53 52 56 63 63 64 65 67 66 64 65 66 64 65 65 66 66 67 64
51 51 51 52 52 52 52 52 52 50 54 49 48 52 58 56 51 48 47 53 53 52 60 58 60 63 62 62 51 50 48 53 46 57 52 48 51 59 62 63 62 63 64 64 65 64 65 67 67 69 67 68 66 64
51 51 51 51 52 52 52 52 52 52 52 56 49 52 53 50 38 42 42 49 50 59 60 59 57 60 60 62 56 48 43 48 60 51 50 50 54 59 59 61 61 63 64 64 64 66 66 66 67 67 66 69 64 65
50 50 50 51 52 52 52 52 52 52 49 49 49 33 44 44 49 52 53 53 55 61 60 59 56 56 57 52 56 51 55 57 50 48 46 50 53 57 59 60 60 59 60 60 61 63 64 64 64 65 67 66 66 66
51 50 51 51 52 52 52 52 52 53 51 47 51 40 48 55 57 59 51 47 62 64 61 56 57 57 54 52 54 53 50 47 47 44 49 52 56 58 57 57 57 57 57 58 59 60 60 62 61 61 63 64 61 63
50 51 51 51 52 52 51 51 52 55 53 52 54 52 57 55 51 57 60 57 62 62 62 60 55 52 52 53 52 50 50 43 44 49 53 55 54 54 55 55 55 55 55 56 58 59 58 58 58 59 61 60 59 61
51 51 51 51 51 51 51 51 54 52 52 52 53 59 57 55 51 55 55 55 61 57 51 55 50 50 55 50 51 51 46 49 54 55 56 53 51 52 53 53 54 54 54 55 56 58 58 59 60 58 56 54 55 56
50 52 51 51 51 51 53 51 54 54 50 54 51 52 57 57 52 51 51 58 57 55 57 52 56 51 50 49 47 50 53 56 57 54 53 53 52 53 52 51 52 53 54 56 56 56 57 57 56 55 55 55 54 54
54 53 51 51 53 52 53 54 55 48 52 56 59 57 53 55 59 58 59 60 61 61 58 56 53 51 51 51 51 54 54 54 52 53 53 53 51 51 51 52 54 54 55 55 55 55 55 55 54 55 54 55 54 54
52 51 52 52 51 51 50 53 58 52 49 53 56 54 52 54 57 61 60 59 58 57 54 51 53 51 51 53 55 55 54 53 51 49 50 50 51 52 52 53 53 53 53 55 54 51 54 54 54 54 54 53 52 52
53 53 53 53 53 51 50 53 54 52 52 51 53 54 48 57 54 55 54 58 55 52 52 53 53 55 56 56 55 53 52 51 49 49 48 48 51 52 52 53 55 54 52 52 52 52 52 53 54 56 55 53 53 52
56 53 55 52 51 55 55 60 52 54 54 54 54 59 54 49 50 48 53 50 51 53 52 53 53 52 53 52 51 52 52 51 51 50 48 49 50 50 51 52 53 52 52 52 52 51 52 54 56 57 56 55 54 55
53 57 57 58 54 46 46 61 53 56 49 50 54 51 49 47 45 50 43 44 45 49 50 49 49 51 49 51 53 51 51 51 51 51 51 51 53 54 54 53 54 53 52 52 53 53 53 50 53 55 55 55 55 54
53 55 50 52 52 43 57 53 56 53 52 49 47 44 43 42 44 41 37 41 45 48 48 48 49 49 50 50 49 50 51 53 53 53 53 54 54 54 56 58 58 56 55 54 53 52 52 53 51 56 56 56 56 56
42 45 45 33 53 50 48 48 47 43 39 44 41 41 40 42 37 36 36 41 44 46 49 50 49 50 48 49 50 50 52 52 51 51 54 56 56 56 55 55 54 55 60 58 56 57 57 58 59 59 59 59 58 58
35 46 41 47 46 45 46 41 39 39 40 40 41 43 42 39 36 35 41 44 45 46 49 49 49 49 49 50 50 51 52 55 54 53 54 55 54 55 55 55 55 55 60 61 60 61 62 62 63 62 62 61 56 63
36 40 45 52 49 46 41 42 42 40 39 40 42 41 41 36 36 41 46 48 48 50 51 52 51 51 50 51 52 54 57 57 57 60 64 64 65 63 61 60 59 62 66 67 65 66 65 65 64 64 64 64 65 65
39 40 36 42 42 42 40 40 40 40 44 49 45 42 42 40 41 46 48 50 51 52 53 54 54 55 54 56 58 59 61 63 62 64 66 66 66 68 67 66 63 52 61 61 66 66 66 66 66 66 65 64 62 64
38 43 42 41 43 43 42 43 48 51 54 52 48 45 46 49 51 51 51 52 53 53 55 59 61 63 63 64 67 70 70 70 66 62 61 61 63 64 68 67 67 67 65 62 46 55 61 62 63 64 65 63 63 63
45 47 43 44 44 44 50 56 55 57 60 59 57 53 52 53 55 57 57 57 56 57 61 65 66 67 67 68 68 69 71 71 70 67 63 63 66 70 70 68 68 69 68 67 67 64 52 60 58 65 63 63 62 62
54 48 48 54 53 57 60 63 64 63 62 60 59 56 55 58 61 63 62 63 64 66 68 68 68 70 70 69 67 66 66 70 69 68 68 72 72 70 69 69 68 68 68 68 68 66 66 64 64 64 65 62 62 60
56 55 55 52 55 62 63 61 61 59 60 59 59 62 62 61 58 62 66 66 65 65 65 64 68 69 72 72 69 67 58 66 65 66 65 66 66 67 71 70 71 69 69 70 69 68 67 66 64 64 63 63 62 61
57 58 59 58 57 56 60 60 59 59 60 60 61 64 63 62 59 65 71 72 70 69 70 71 72 71 68 68 66 63 59 59 48 42 43 43 42 52 65 67 67 69 70 68 68 67 66 65 64 62 62 62 61 61
MSLP
1024.73 1024.89 1025.04 1025.11 1025.14 1025.16 1025.14 1024.99 1024.73 1024.58 1024.43 1024.14 1023.72 1023.25 1022.79 1022.36 1021.97 1021.53 1019.83 1018.41 1017.99 1017.11 1015.17 1013.90 1013.37 1012.87 1012.21 1011.88 1011.74 1011.08 1010.15 1009.81 1010.29 1010.82 1010.58 1009.98 1009.07 1008.25 1007.77 1007.26 1007.15 1007.51 1008.08 1008.48 1008.70 1008.42 1006.90 1005.33 1005.22 1006.34 1006.90 1007.26 1007.61 1008.41
1024.24 1024.42 1024.57 1024.72 1024.80 1024.82 1024.86 1024.80 1024.56 1024.48 1024.31 1024.10 1023.75 1023.35 1022.94 1022.55 1022.15 1021.58 1019.99 1018.54 1017.91 1017.54 1015.66 1014.33 1013.65 1013.13 1012.92 1012.61 1012.52 1012.14 1011.93 1011.81 1011.62 1011.43 1011.04 1010.35 1009.62 1008.83 1008.46 1008.01 1006.79 1007.26 1006.84 1007.36 1007.54 1007.16 1006.64 1005.90 1006.09 1006.42 1007.02 1007.18 1007.78 1008.67
1023.66 1023.87 1024.03 1024.20 1024.37 1024.49 1024.52 1024.56 1024.46 1024.31 1024.14 1023.97 1023.70 1023.36 1023.03 1022.73 1022.42 1022.32 1021.36 1019.87 1018.58 1017.03 1014.72 1013.64 1012.60 1011.64 1012.06 1012.32 1012.35 1012.80 1012.41 1012.88 1012.92 1012.70 1012.17 1011.19 1010.09 1009.18 1009.04 1008.77 1007.90 1007.30 1006.87 1006.65 1007.16 1007.48 1007.16 1007.07 1007.43 1007.62 1007.85 1008.47 1008.14 1008.51
1023.03 1023.21 1023.42 1023.67 1023.92 1024.07 1024.18 1024.27 1024.23 1024.05 1023.93 1023.80 1023.58 1023.28 1022.97 1022.67 1022.43 1022.30 1021.66 1020.18 1019.43 1017.79 1015.88 1012.73 1011.64 1011.88 1011.79 1011.98 1012.22 1012.48 1012.92 1013.08 1013.20 1012.90 1012.61 1012.08 1011.35 1010.12 1009.84 1009.60 1009.20 1008.86 1008.15 1008.46 1008.37 1008.43 1008.53 1008.87 1009.43 1009.90 1008.93 1008.76 1008.58 1008.33
1022.39 1022.64 1022.89 1023.14 1023.46 1023.65 1023.84 1023.94 1023.95 1023.79 1023.68 1023.59 1023.42 1023.18 1022.89 1022.56 1022.18 1021.68 1020.98 1019.70 1019.01 1018.52 1016.92 1014.79 1013.01 1011.74 1011.76 1012.08 1012.31 1012.40 1012.83 1013.31 1013.49 1012.96 1012.51 1012.31 1011.36 1010.71 1010.07 1009.55 1009.52 1009.17 1009.40 1009.66 1010.08 1010.14 1009.90 1010.62 1009.93 1009.72 1009.63 1008.74 1008.82 1009.03
1021.91 1022.15 1022.43 1022.74 1023.03 1023.25 1023.46 1023.60 1023.63 1023.52 1023.47 1023.41 1023.22 1023.03 1022.77 1022.51 1022.09 1021.11 1019.85 1018.97 1019.02 1018.52 1017.64 1015.18 1012.34 1011.76 1011.73 1012.03 1012.41 1012.55 1012.86 1013.36 1013.50 1013.05 1012.60 1011.74 1010.91 1010.88 1010.73 1010.30 1010.49 1009.58 1009.62 1009.62 1010.02 1009.64 1010.00 1010.43 1010.68 1010.48 1010.28 1009.32 1008.57 1008.79
1021.42 1021.69 1021.98 1022.35 1022.63 1022.82 1023.08 1023.27 1023.30 1023.26 1023.23 1023.19 1023.00 1022.78 1022.52 1022.32 1022.26 1021.44 1020.97 1019.95 1019.55 1019.71 1018.17 1015.51 1012.88 1011.53 1011.58 1012.11 1012.38 1012.64 1012.86 1013.11 1013.04 1012.82 1012.46 1012.17 1011.53 1011.02 1010.54 1010.56 1010.33 1010.23 1010.11 1009.95 1009.99 1009.50 1010.43 1010.06 1010.49 1010.53 1009.91 1010.38 1009.33 1009.11
1020.81 1021.16 1021.54 1021.93 1022.23 1022.44 1022.72 1022.94 1023.02 1023.03 1022.98 1022.87 1022.66 1022.40 1022.04 1021.68 1021.53 1020.98 1019.28 1018.78 1019.47 1019.23 1017.66 1015.79 1013.66 1012.39 1011.77 1012.17 1012.43 1012.25 1012.71 1012.83 1012.60 1012.28 1011.90 1011.76 1011.31 1010.86 1010.53 1010.05 1009.79 1009.79 1009.86 1009.95 1010.10 1010.22 1010.15 1009.99 1009.97 1010.25 1010.58 1010.27 1009.93 1010.04
1020.06 1020.52 1021.00 1021.47 1021.84 1022.10 1022.35 1022.58 1022.73 1022.78 1022.76 1022.61 1022.34 1021.93 1021.59 1020.74 1019.67 1019.04 1018.81 1018.88 1019.04 1019.09 1017.55 1015.33 1013.97 1014.10 1013.77 1012.60 1012.46 1012.38 1012.09 1012.25 1011.53 1011.68 1011.41 1011.48 1011.20 1010.65 1010.09 1009.94 1009.73 1009.86 1009.97 1010.16 1010.34 1010.55 1010.58 1010.58 1010.38 1010.46 1010.74 1010.76 1010.83 1010.77
1019.27 1019.90 1020.39 1020.89 1021.39 1021.78 1022.04 1022.25 1022.42 1022.54 1022.57 1022.45 1022.26 1021.09 1019.85 1018.49 1018.50 1018.69 1018.84 1018.58 1018.31 1017.49 1016.96 1015.30 1013.99 1014.65 1015.21 1014.39 1013.64 1013.85 1013.30 1012.00 1011.59 1011.03 1010.56 1010.63 1010.62 1010.17 1009.64 1009.32 1009.41 1009.82 1010.07 1010.25 1010.48 1010.78 1010.94 1011.05 1011.06 1011.39 1011.40 1011.51 1011.76 1011.72
1018.46 1019.19 1019.90 1020.42 1020.96 1021.40 1021.74 1021.97 1022.20 1022.39 1022.27 1021.95 1021.12 1019.81 1018.77 1018.50 1018.52 1018.29 1017.85 1017.38 1016.50 1015.50 1014.47 1013.35 1012.93 1013.62 1013.83 1014.27 1014.37 1014.67 1014.57 1012.64 1012.04 1011.10 1010.51 1010.60 1010.78 1010.95 1010.30 1010.20 1010.44 1010.54 1010.57 1010.90 1011.06 1011.03 1010.90 1010.96 1011.08 1011.15 1011.18 1011.22 1011.15 1011.32
1017.76 1018.50 1019.33 1019.99 1020.61 1021.03 1021.43 1021.73 1022.06 1022.35 1021.23 1021.76 1021.66 1020.35 1018.96 1018.28 1018.10 1017.70 1016.71 1015.65 1014.59 1013.17 1011.93 1011.62 1011.25 1011.30 1011.54 1011.93 1013.58 1014.69 1014.29 1012.83 1011.70 1011.16 1011.40 1011.34 1011.65 1011.59 1011.27 1011.29 1011.42 1011.41 1011.73 1011.83 1011.73 1011.63 1011.42 1011.21 1010.99 1010.74 1010.85 1010.91 1011.12 1011.41
1017.31 1017.94 1018.92 1019.65 1020.26 1020.73 1021.19 1021.55 1021.87 1021.94 1021.65 1020.58 1020.69 1019.31 1017.95 1017.51 1017.21 1016.46 1015.15 1013.84 1012.96 1011.80 1011.61 1011.61 1011.23 1011.32 1011.60 1011.72 1012.63 1014.08 1014.59 1012.56 1011.55 1011.72 1011.58 1012.23 1012.20 1012.59 1012.44 1012.46 1012.48 1012.32 1012.44 1012.36 1012.14 1011.97 1011.83 1011.59 1011.30 1011.21 1011.00 1010.98 1010.99 1011.04
1017.11 1017.72 1018.72 1019.46 1020.02 1020.55 1021.06 1021.48 1021.78 1021.92 1021.88 1020.08 1018.68 1018.27 1017.13 1015.96 1015.12 1013.98 1013.54 1013.29 1012.80 1011.85 1011.84 1011.98 1012.10 1012.06 1012.37 1012.72 1012.48 1012.87 1012.28 1011.64 1011.47 1011.74 1012.77 1013.65 1013.41 1013.17 1013.15 1013.22 1013.40 1013.50 1013.51 1013.39 1013.03 1012.54 1012.30 1012.03 1011.96 1011.77 1011.44 1011.17 1011.03 1011.04
1016.77 1017.76 1018.75 1019.53 1020.04 1020.59 1021.05 1021.48 1021.73 1021.67 1020.63 1019.17 1017.30 1015.98 1015.09 1014.28 1013.73 1013.12 1013.22 1013.89 1012.38 1012.02 1011.92 1012.35 1012.41 1012.47 1012.73 1012.62 1012.51 1012.34 1012.42 1012.25 1012.83 1013.52 1013.88 1014.06 1013.94 1013.84 1013.85 1013.97 1014.00 1013.92 1013.88 1013.60 1013.36 1013.04 1012.74 1012.41 1012.30 1012.16 1011.95 1011.84 1012.00 1011.53
1017.22 1018.34 1018.89 1019.45 1020.09 1020.59 1021.07 1021.52 1021.50 1020.95 1019.42 1017.84 1016.13 1014.58 1013.68 1013.58 1013.87 1013.37 1012.84 1013.13 1012.73 1012.37 1012.39 1012.39 1012.50 1012.46 1012.29 1012.30 1012.14 1012.13 1012.08 1013.28 1014.28 1014.41 1014.62 1014.61 1014.81 1014.79 1014.65 1014.54 1014.39 1014.28 1014.17 1013.80 1013.36 1013.00 1012.91 1012.67 1012.39 1012.23 1012.10 1012.32 1012.03 1011.77
1017.68 1017.69 1018.62 1019.46 1020.09 1020.67 1021.14 1021.22 1020.32 1019.30 1017.79 1016.25 1014.83 1013.95 1013.89 1013.85 1013.90 1013.45 1013.41 1013.52 1013.08 1012.94 1012.84 1012.60 1012.62 1012.57 1012.32 1012.47 1012.19 1012.79 1013.59 1014.13 1014.29 1014.68 1014.91 1015.26 1015.34 1015.19 1014.96 1014.70 1014.53 1014.37 1014.07 1013.64 1013.14 1012.74 1012.51 1012.40 1012.25 1012.43 1012.47 1012.52 1012.43 1012.12
1017.45 1018.03 1018.89 1019.60 1020.17 1020.69 1020.64 1020.61 1018.74 1017.29 1016.38 1015.40 1014.77 1014.52 1014.12 1014.01 1014.18 1014.49 1014.36 1013.82 1013.61 1013.12 1013.10 1013.10 1013.03 1013.01 1012.68 1012.86 1013.71 1014.39 1014.46 1014.64 1014.80 1015.14 1015.37 1015.57 1015.58 1015.39 1015.13 1014.71 1014.22 1013.96 1013.60 1013.13 1012.84 1012.61 1012.39 1012.35 1012.62 1012.89 1012.77 1012.58 1012.49 1012.70
1017.93 1018.59 1019.24 1019.71 1019.79 1019.77 1018.94 1018.59 1018.02 1016.74 1015.50 1014.75 1013.98 1014.18 1014.58 1014.54 1014.39 1014.63 1014.32 1014.02 1013.76 1013.53 1013.59 1013.53 1013.44 1013.39 1013.57 1014.07 1014.51 1014.73 1015.13 1015.33 1015.49 1015.48 1015.51 1015.61 1015.54 1015.37 1014.79 1014.24 1013.58 1013.34 1013.28 1013.05 1012.99 1012.95 1012.94 1013.04 1013.34 1013.40 1013.15 1012.90 1013.08 1013.67
1018.69 1019.36 1019.75 1020.08 1020.22 1019.31 1017.87 1016.83 1016.56 1016.02 1015.24 1014.76 1014.64 1014.77 1014.82 1014.71 1014.52 1014.37 1014.45 1014.46 1014.28 1014.08 1014.08 1014.30 1014.15 1014.60 1015.02 1015.31 1015.39 1015.44 1015.60 1015.77 1015.98 1015.94 1015.75 1015.73 1015.55 1015.30 1014.79 1014.31 1014.10 1013.91 1013.72 1013.68 1013.76 1013.69 1013.70 1013.88 1013.92 1014.03 1013.99 1014.15 1014.52 1014.85
1019.10 1019.68 1020.01 1020.02 1019.34 1018.75 1017.67 1015.98 1015.49 1015.86 1015.32 1015.04 1015.22 1015.15 1015.52 1014.66 1015.11 1015.20 1015.41 1015.56 1015.11 1014.93 1014.90 1015.22 1015.46 1015.73 1015.83 1016.04 1016.13 1016.26 1016.26 1016.23 1016.26 1016.28 1016.20 1015.98 1015.74 1015.49 1015.13 1014.95 1014.79 1014.74 1014.55 1014.51 1014.58 1014.63 1014.57 1014.62 1014.66 1014.63 1014.69 1015.02 1015.42 1015.58
1018.47 1019.20 1019.15 1019.42 1018.43 1017.03 1016.41 1015.33 1015.60 1015.51 1015.05 1014.87 1014.83 1014.38 1014.72 1015.53 1016.24 1016.89 1016.86 1016.44 1015.97 1015.90 1016.11 1016.23 1016.36 1016.38 1016.39 1016.51 1016.69 1016.66 1016.50 1016.39 1016.45 1016.29 1016.11 1016.01 1015.87 1015.75 1015.56 1015.44 1015.22 1015.25 1015.18 1015.17 1015.16 1015.23 1015.22 1015.14 1015.14 1015.29 1015.52 1015.88 1016.15 1016.34
1018.57 1018.28 1017.85 1017.23 1016.88 1016.61 1015.97 1014.84 1014.83 1014.68 1015.12 1015.24 1015.08 1015.34 1016.14 1017.04 1018.04 1018.04 1017.79 1017.84 1017.69 1017.40 1017.22 1017.22 1017.10 1017.01 1017.00 1016.92 1016.80 1016.71 1016.60 1016.61 1016.41 1016.25 1016.16 1016.02 1015.92 1015.76 1015.66 1015.60 1015.53 1015.61 1015.68 1015.68 1015.65 1015.68 1015.69 1015.63 1015.71 1015.92 1016.16 1016.39 1016.66 1016.93
1018.10 1017.77 1017.46 1016.66 1016.50 1016.29 1015.37 1015.11 1015.11 1015.42 1015.81 1015.94 1016.35 1016.96 1017.89 1018.58 1018.93 1018.83 1018.61 1018.34 1017.86 1017.54 1017.40 1017.23 1017.23 1017.14 1017.08 1016.99 1016.90 1016.79 1016.77 1016.72 1016.57 1016.38 1016.15 1015.90 1015.74 1015.81 1015.66 1015.52 1015.68 1015.92 1015.94 1015.92 1015.90 1015.94 1016.03 1016.08 1016.17 1016.35 1016.58 1016.79 1016.95 1017.12
1018.59 1018.16 1017.72 1017.32 1016.45 1016.09 1015.88 1015.96 1016.41 1017.06 1017.38 1017.38 1017.67 1018.09 1018.62 1019.14 1019.19 1019.00 1018.71 1018.24 1017.89 1017.58 1017.26 1017.16 1017.16 1017.13 1017.09 1017.07 1016.99 1016.92 1016.84 1016.77 1016.60 1016.37 1016.16 1015.76 1015.90 1015.92 1016.02 1016.09 1016.18 1016.19 1016.01 1016.12 1016.25 1016.21 1016.20 1016.25 1016.22 1016.31 1016.32 1016.39 1016.57 1016.75
1018.68 1018.18 1017.98 1017.32 1017.10 1016.97 1016.92 1017.27 1017.68 1017.92 1017.88 1017.90 1018.00 1018.27 1018.69 1018.84 1018.86 1018.70 1018.34 1018.16 1017.80 1017.40 1017.17 1017.13 1017.14 1017.18 1017.13 1016.97 1016.91 1016.85 1016.80 1016.56 1016.48 1016.32 1016.30 1016.01 1015.92 1015.85 1016.00 1016.21 1016.43 1016.58 1016.29 1016.03 1015.94 1015.69 1015.52 1015.45 1015.44 1015.61 1015.56 1015.69 1015.87 1016.07
1019.00 1018.50 1018.29 1017.91 1017.89 1017.90 1018.05 1018.18 1018.24 1018.03 1017.60 1017.40 1017.41 1017.69 1017.97 1018.16 1018.13 1018.08 1017.86 1017.71 1017.53 1017.42 1017.27 1017.09 1017.05 1017.06 1017.04 1016.83 1016.52 1016.36 1016.27 1016.15 1016.10 1015.68 1015.48 1015.70 1015.63 1015.67 1015.77 1015.98 1015.82 1015.52 1015.60 1015.36 1015.52 1015.33 1015.12 1015.19 1015.32 1015.40 1015.45 1015.53 1015.60 1015.73
1019.33 1019.09 1018.72 1018.43 1018.33 1018.26 1017.88 1017.63 1017.34 1016.93 1016.52 1016.49 1016.64 1016.53 1016.92 1017.33 1017.51 1017.49 1017.45 1017.35 1017.32 1017.37 1017.40 1017.31 1017.07 1016.85 1016.47 1016.34 1016.01 1015.69 1015.55 1015.44 1015.39 1015.23 1015.28 1015.33 1015.30 1015.20 1015.30 1015.56 1015.76 1015.61 1015.70 1015.57 1015.64 1015.60 1015.35 1015.35 1015.35 1015.44 1015.60 1015.85 1016.17 1016.36
1019.00 1018.70 1018.52 1018.00 1017.60 1017.30 1016.89 1016.33 1015.39 1014.96 1014.77 1014.92 1015.18 1015.97 1016.49 1016.71 1016.94 1017.03 1017.09 1017.11 1017.12 1017.08 1016.76 1016.36 1016.16 1015.98 1015.74 1015.33 1014.92 1014.51 1014.34 1014.30 1014.44 1014.56 1014.70 1014.91 1015.09 1015.32 1015.26 1015.34 1015.44 1015.45 1015.72 1015.93 1016.03 1016.07 1016.07 1016.06 1016.10 1016.14 1016.15 1016.32 1016.55 1016.77
1017.47 1017.53 1017.33 1016.66 1016.05 1015.33 1014.74 1014.26 1014.01 1013.94 1013.86 1014.35 1014.90 1015.54 1015.84 1016.14 1016.46 1016.50 1016.52 1016.68 1016.61 1016.25 1015.69 1015.00 1014.66 1014.50 1014.24 1014.21 1014.05 1013.94 1013.92 1013.91 1014.05 1014.26 1014.28 1014.39 1014.46 1014.68 1014.87 1015.08 1015.23 1015.31 1015.46 1015.66 1015.87 1016.12 1016.16 1016.19 1016.24 1016.23 1016.38 1016.48 1016.64 1016.80
1015.94 1016.44 1015.89 1014.69 1014.32 1013.82 1013.51 1013.41 1013.44 1013.53 1013.90 1014.39 1014.73 1014.71 1015.01 1015.50 1015.79 1015.71 1015.63 1015.40 1015.29 1014.94 1014.27 1013.92 1013.56 1013.28 1013.32 1013.43 1013.69 1013.86 1014.13 1014.39 1014.75 1014.77 1014.55 1014.45 1014.76 1015.06 1015.19 1015.26 1015.26 1015.30 1015.46 1015.55 1015.64 1016.02 1016.13 1016.20 1016.20 1016.29 1016.30 1016.63 1016.99 1017.22
1014.84 1014.60 1014.38 1014.14 1013.77 1013.35 1013.16 1013.11 1013.17 1013.44 1013.50 1013.64 1013.68 1013.71 1013.84 1013.95 1014.27 1014.38 1014.23 1014.43 1014.38 1014.06 1013.68 1013.60 1013.09 1013.05 1013.27 1013.61 1014.15 1014.55 1014.81 1015.37 1015.84 1015.97 1016.00 1016.09 1016.14 1016.09 1015.73 1015.57 1015.72 1015.80 1015.83 1015.74 1015.80 1015.91 1016.25 1016.31 1016.45 1016.56 1016.70 1016.87 1017.18 1017.48
1013.99 1013.93 1013.59 1013.41 1013.26 1013.06 1012.92 1012.73 1012.83 1012.81 1012.90 1012.56 1012.44 1012.40 1012.60 1012.79 1012.98 1012.97 1012.67 1012.67 1012.69 1012.55 1012.75 1012.80 1013.07 1013.37 1013.92 1014.33 1014.87 1015.45 1015.92 1016.34 1016.53 1016.66 1016.81 1016.98 1017.01 1016.90 1016.88 1016.80 1016.64 1016.38 1016.23 1016.24 1016.23 1016.30 1016.49 1016.77 1016.87 1017.07 1017.26 1017.37 1017.56 1017.74
Wind_Speed
11 11 11 11 9 9 9 10 11 9 11 13 14 16 18 19 20 11 8 10 2 4 9 7 10 9 10 8 4 7 5 6 2 1 1 3 3 6 6 8 4 9 7 6 3 5 11 5 6 2 7 1 13 15
12 11 11 12 10 9 8 9 7 7 10 12 13 14 16 18 19 17 4 9 8 4 7 14 14 12 8 4 2 5 4 8 4 4 2 4 3 4 3 5 6 4 8 7 10 8 3 5 6 6 8 6 7 14
14 13 12 12 11 9 8 8 7 8 10 11 13 14 14 15 16 12 6 7 6 4 9 6 8 10 6 5 4 0 3 5 4 3 3 4 3 4 3 3 5 8 9 3 6 6 4 11 10 10 7 6 4 7
15 14 12 12 11 10 9 8 9 9 10 11 12 13 14 14 14 12 5 7 6 4 4 1 7 2 2 3 4 4 3 3 3 3 2 2 4 5 3 1 2 2 7 8 3 12 5 14 13 16 5 4 5 8
12 12 13 12 11 10 9 9 9 10 10 11 12 13 14 15 15 10 7 7 8 4 4 8 14 7 7 4 4 4 2 1 3 4 1 3 3 4 4 1 2 2 1 3 3 3 2 3 2 4 5 3 6 6
12 12 12 11 11 11 10 9 10 10 9 10 12 13 13 14 15 5 3 4 6 5 3 5 1 2 6 7 5 4 3 1 3 2 3 4 5 2 3 2 4 7 2 4 2 2 3 9 2 5 2 2 2 8
12 12 13 12 12 12 10 9 9 9 9 11 12 12 13 12 6 4 4 4 11 6 4 5 3 4 7 6 3 3 4 4 3 3 4 4 6 3 2 4 4 8 2 6 6 7 3 6 4 8 6 11 4 5
14 13 14 13 13 13 11 10 9 8 9 11 12 14 15 17 12 6 5 13 3 4 4 4 0 4 6 4 3 4 4 4 3 3 3 3 4 2 3 4 3 6 6 0 0 5 5 7 4 4 5 3 7 7
17 15 15 14 13 12 11 10 9 8 9 11 14 17 7 4 4 2 5 5 3 3 4 4 3 2 9 3 1 2 3 5 4 5 6 4 4 5 6 8 3 6 5 6 6 7 7 8 8 8 7 7 8 10
19 17 16 16 14 12 12 10 9 7 8 11 7 5 4 2 9 3 2 3 5 4 5 5 1 3 3 5 3 3 4 2 1 4 3 5 5 8 6 7 7 8 6 5 3 3 5 5 4 3 1 3 5 4
20 20 18 17 15 13 12 10 8 5 7 4 4 2 1 3 2 3 3 4 4 4 6 5 8 4 4 8 3 1 4 3 1 5 4 2 3 3 10 12 9 8 8 8 8 7 6 5 5 4 4 7 4 7
17 21 19 18 15 13 12 9 7 2 3 5 5 7 4 4 2 4 3 4 6 5 4 3 5 5 2 4 4 2 2 3 4 1 3 2 3 6 9 11 11 10 9 9 8 7 9 11 9 5 5 5 3 5
15 21 20 18 16 13 11 9 8 8 11 4 4 4 3 3 1 6 7 4 4 2 2 3 3 3 4 3 3 4 3 7 4 2 4 1 5 6 5 8 9 9 10 8 8 8 7 9 11 10 8 7 2 4
12 22 19 17 14 13 11 9 6 5 4 4 4 2 5 6 7 7 6 2 3 1 3 4 3 3 3 3 2 1 4 4 3 3 4 3 3 4 5 5 5 6 6 10 13 11 11 7 8 10 9 8 6 2
21 23 18 15 15 13 11 8 5 3 3 5 5 5 8 8 3 8 10 5 4 3 2 2 3 2 2 3 3 1 3 2 4 3 2 1 3 5 6 6 6 6 7 8 7 9 10 10 8 8 8 12 11 11
21 17 11 16 14 12 10 6 4 4 4 5 6 6 4 4 6 8 7 4 3 1 1 1 1 2 3 2 3 4 4 4 2 1 2 4 6 6 6 6 7 6 8 10 9 7 7 8 7 8 8 6 6 3
14 4 19 18 15 11 9 4 5 6 5 4 5 4 4 1 4 6 4 2 3 5 2 3 2 3 2 3 3 5 3 2 2 4 3 5 5 7 7 8 8 8 9 10 9 8 7 7 5 6 5 2 6 7
2 14 20 17 12 7 4 5 5 4 5 5 6 2 2 3 6 4 4 3 0 1 1 3 2 3 2 3 3 4 5 4 4 3 3 3 5 7 7 9 9 8 9 6 5 4 4 3 2 2 4 8 5 4
12 12 18 18 7 3 6 6 4 4 6 6 4 2 4 3 2 5 6 2 3 2 2 2 3 2 2 5 5 5 4 3 4 4 3 3 5 6 8 8 5 2 3 0 5 5 5 7 5 3 3 4 7 5
16 13 10 8 3 3 5 5 4 3 3 3 1 2 0 1 2 1 3 4 3 2 1 2 3 3 3 5 5 5 4 4 3 4 3 3 4 5 6 5 4 6 6 6 6 7 6 6 5 5 6 7 7 6
9 6 7 6 5 6 3 4 2 1 4 2 3 1 3 5 3 3 4 5 1 2 2 4 4 4 5 4 4 4 3 2 2 2 2 3 3 3 3 5 5 5 5 5 6 6 7 5 5 6 7 7 6 7
4 16 4 6 4 7 5 4 3 5 2 3 6 1 2 4 3 5 6 3 2 2 3 4 5 5 4 3 3 3 2 3 2 3 4 3 1 2 3 3 4 5 5 4 4 5 5 4 7 8 9 9 8 7
7 4 4 5 2 2 6 3 2 1 1 3 3 2 4 4 3 5 1 1 3 2 3 4 4 3 2 3 1 2 3 3 2 3 3 1 1 2 2 3 4 5 5 5 4 5 4 5 7 7 6 6 6 6
2 2 4 3 5 3 2 1 2 3 5 3 3 3 3 2 3 1 2 2 3 2 1 2 1 1 0 0 1 0 1 1 1 2 3 2 3 4 3 4 6 5 4 2 3 4 4 5 6 7 7 7 6 6
1 4 2 4 4 2 2 3 4 4 2 3 3 1 1 1 1 1 2 2 2 3 2 1 2 1 1 1 1 0 2 1 2 2 3 4 5 6 5 4 4 3 4 6 4 4 4 3 2 4 5 6 7 7
1 2 1 2 2 3 3 1 2 1 2 2 3 2 2 2 1 3 2 2 2 2 2 2 3 2 2 2 2 1 2 3 2 1 1 1 2 3 4 6 5 3 5 4 3 4 4 4 5 7 5 6 9 7
2 1 2 2 2 2 2 1 1 1 2 3 2 3 3 1 2 2 1 1 1 2 2 3 3 3 3 3 3 3 4 4 5 3 4 6 5 4 4 3 1 5 6 5 5 4 3 4 5 4 4 3 3 4
2 1 2 1 0 2 2 3 3 4 3 2 2 3 2 1 0 0 0 1 1 1 1 0 3 4 6 6 6 6 6 6 7 8 4 4 3 3 6 4 3 9 7 7 7 6 4 4 3 5 6 6 6 6
2 3 2 3 2 2 4 4 4 4 4 3 1 2 2 1 3 2 2 2 2 2 4 4 6 8 8 8 7 4 7 7 7 7 9 6 6 4 4 4 3 3 5 5 8 7 7 6 7 7 7 5 4 5
3 5 3 3 4 7 5 4 3 5 7 8 6 5 2 3 3 3 4 5 6 7 8 6 4 5 6 7 5 4 3 6 5 3 4 4 5 6 5 4 4 4 4 5 4 4 2 2 1 1 0 1 1 2
6 5 5 5 8 7 7 6 8 6 10 10 7 8 6 5 5 5 7 8 7 8 5 5 6 7 3 4 4 4 7 6 11 13 10 6 7 5 4 1 1 3 4 4 2 4 4 2 4 4 4 6 6 5
3 2 6 10 6 4 3 3 6 6 7 7 6 5 7 6 7 8 8 9 9 8 9 9 3 3 5 7 9 10 13 9 8 7 11 8 7 8 6 4 6 4 5 2 2 5 5 5 6 6 6 4 5 4
3 3 1 5 5 4 5 4 5 5 6 5 5 7 7 6 6 3 3 4 4 4 3 1 8 9 12 11 11 9 9 8 9 10 13 11 10 10 7 6 6 5 4 5 5 4 4 5 4 5 3 3 3 3
Wind_Direction
243 251 252 258 267 290 294 306 314 322 333 337 339 347 350 353 356 353 280 284 311 305 290 340 350 346 344 20 15 315 336 10 44 180 277 259 247 243 240 242 188 177 172 209 211 216 264 301 355 149 212 159 133 131
239 244 245 247 255 274 284 302 311 314 324 331 336 338 343 350 354 349 288 336 349 267 274 307 286 274 277 323 340 330 307 16 336 352 22 312 286 323 329 289 308 206 185 194 170 212 193 53 107 55 154 99 112 127
238 239 243 236 242 258 270 288 295 307 315 320 328 334 337 342 348 354 303 309 294 273 281 233 255 238 213 216 253 312 51 15 356 318 296 287 295 18 328 356 302 354 2 131 73 344 82 93 59 42 54 49 50 138
241 237 231 226 232 245 256 269 284 295 312 313 319 326 330 334 335 338 306 300 285 288 272 358 119 152 197 268 228 213 252 6 284 271 287 301 328 346 321 316 310 345 349 333 39 30 37 55 40 8 46 47 28 83
228 229 224 222 222 235 243 260 280 290 298 307 312 318 324 328 326 308 261 259 265 275 306 304 313 229 164 193 261 259 187 129 304 310 248 253 296 330 286 234 272 81 77 67 47 282 338 48 174 111 315 41 118 96
225 225 217 209 222 228 240 258 265 285 293 302 308 311 316 322 330 295 232 161 8 1 282 279 341 175 152 154 201 233 175 178 243 275 295 278 254 205 302 305 256 43 1 141 174 325 135 189 122 310 234 205 44 119
226 226 208 212 223 222 229 247 263 275 288 297 302 302 303 305 308 269 312 316 321 312 255 275 256 187 164 152 208 170 209 226 206 232 227 265 287 294 210 238 146 122 37 23 18 22 60 359 176 157 12 4 15 295
219 216 208 211 219 215 221 237 250 269 284 295 299 298 297 293 279 269 225 238 237 259 266 277 344 273 158 189 199 195 189 196 241 230 267 249 288 253 243 268 285 159 148 256 270 43 354 6 20 36 54 52 27 12
215 210 205 206 213 210 217 231 243 263 282 297 301 293 290 215 235 84 161 136 209 288 308 277 286 296 343 271 25 321 238 186 226 191 226 193 235 226 190 238 276 79 118 100 36 39 359 20 13 29 27 21 23 318
207 207 203 199 201 210 216 225 241 261 283 304 285 223 217 162 133 153 146 208 197 210 217 250 202 156 169 304 44 23 309 206 218 245 220 214 240 247 250 210 195 124 100 77 50 25 355 7 28 104 305 166 180 89
204 197 202 194 194 204 212 217 232 276 260 223 231 245 71 126 204 225 234 225 201 223 208 228 227 144 171 188 125 68 265 252 251 259 178 240 161 3 47 53 59 65 58 44 25 356 312 294 283 287 256 282 312 156
202 189 188 187 191 198 202 209 207 218 304 320 284 276 260 208 211 243 228 221 218 235 183 210 238 203 143 130 128 57 307 275 243 86 41 265 90 17 53 56 41 43 26 9 4 350 354 347 327 300 234 289 72 126
196 175 176 181 184 190 197 196 210 272 311 262 206 235 183 208 129 219 208 207 227 166 77 9 338 54 12 45 85 131 112 254 83 211 185 90 85 65 53 34 27 14 0 340 333 334 330 336 339 344 351 337 192 169
177 165 171 176 178 182 185 185 208 259 254 249 208 281 210 214 220 213 246 40 301 130 105 44 349 62 26 4 285 253 261 292 273 207 82 104 52 58 40 46 23 358 345 333 324 318 309 329 327 331 337 330 318 252
166 157 161 166 167 172 171 174 198 239 269 259 249 199 217 246 325 296 110 307 297 112 95 107 244 149 239 223 225 268 234 205 38 37 74 107 44 23 26 13 338 328 320 307 298 302 311 319 324 327 340 346 11 8
131 131 164 156 166 162 158 173 193 244 247 237 242 274 283 244 216 262 127 118 351 13 179 229 277 297 227 266 254 242 331 59 68 322 29 24 19 355 338 321 306 308 307 294 288 280 276 281 293 302 316 5 336 0
167 143 152 153 154 155 175 228 206 224 249 258 245 236 267 315 283 43 40 27 357 323 91 258 208 220 247 229 247 34 38 164 103 87 57 46 349 325 313 302 302 295 282 280 279 259 251 264 302 318 343 50 70 23
144 134 142 144 146 159 186 217 257 237 246 246 258 195 345 356 96 49 335 268 265 242 265 6 318 277 283 5 39 40 44 46 58 56 61 5 328 304 298 287 277 269 278 287 313 317 300 280 104 78 139 114 145 105
128 142 152 170 189 263 187 199 233 262 241 278 264 46 64 254 117 158 211 17 319 10 317 302 274 263 12 35 29 35 26 41 358 352 8 356 302 305 305 309 334 345 230 17 75 71 66 69 75 54 66 69 74 71
108 129 148 163 226 264 234 197 189 260 285 324 65 97 48 201 232 193 68 38 1 293 156 272 355 41 48 30 7 1 15 23 355 315 317 337 330 325 329 11 33 42 48 55 62 60 66 68 60 66 73 82 98 99
151 153 166 191 222 222 274 286 119 303 281 119 1 96 235 196 129 96 48 338 306 337 284 63 43 74 57 20 32 11 359 347 354 320 316 306 333 336 351 18 42 43 53 54 63 50 56 68 72 80 89 90 88 89
88 157 194 201 265 205 240 231 172 213 286 214 210 237 73 58 53 27 334 348 336 28 34 2 359 355 346 26 355 311 332 359 339 289 273 275 342 9 22 31 52 61 57 58 71 68 56 63 87 87 92 100 101 106
164 194 229 225 270 36 257 250 302 10 54 8 346 48 35 55 29 334 359 353 292 307 339 313 307 311 277 297 313 18 8 347 341 28 35 12 221 229 105 45 65 83 74 57 72 85 77 67 83 92 90 88 100 105
286 280 312 290 183 250 255 225 19 32 12 48 15 31 43 30 358 348 280 265 257 295 272 257 255 288 160 44 55 22 314 340 0 12 356 273 110 112 135 113 103 98 104 114 81 62 50 73 96 111 119 121 120 120
272 300 153 286 249 271 243 64 46 55 7 17 5 80 134 140 278 273 250 265 292 281 270 171 184 196 124 93 94 67 354 13 17 20 12 30 78 82 68 57 65 72 122 122 133 151 165 189 176 166 168 160 170 182
290 246 158 319 321 351 47 145 116 206 235 208 227 164 156 217 235 253 253 301 280 280 108 139 132 116 70 50 111 110 230 239 270 138 165 2 325 138 129 129 136 203 226 204 220 253 232 228 175 172 140 129 153 136
257 247 13 14 27 40 72 88 8 263 248 223 187 186 195 207 246 241 280 265 301 31 37 65 85 86 143 223 267 248 238 223 223 240 181 200 196 193 147 155 246 191 209 222 202 235 36 78 105 137 163 170 145 120
235 315 193 169 171 185 240 183 216 219 222 204 191 212 133 188 38 174 221 249 145 40 72 130 245 221 222 225 238 236 231 227 243 243 181 186 178 107 94 95 100 104 84 46 61 30 23 35 86 97 86 77 64 68
214 193 214 212 236 204 230 228 227 210 198 200 80 106 134 135 142 162 192 193 192 238 249 222 209 207 222 230 248 228 203 197 183 164 144 150 147 149 153 153 187 128 110 94 60 68 58 58 48 42 63 85 87 87
193 161 218 226 221 206 223 213 69 59 77 78 88 100 83 92 165 191 189 191 205 225 229 240 225 240 214 196 194 216 50 53 39 77 150 141 146 152 160 153 160 159 144 141 142 138 87 186 103 150 346 51 56 187
139 174 238 144 103 107 120 129 154 152 143 136 152 158 151 151 193 213 205 213 219 245 261 243 224 212 181 87 38 125 99 66 46 32 15 89 81 69 72 52 113 84 59 28 97 159 174 249 209 231 116 88 75 29
171 154 124 114 112 89 100 124 125 129 140 150 173 188 177 181 164 189 206 210 221 223 229 242 211 103 116 121 83 63 69 72 53 43 48 41 41 22 2 50 63 42 21 22 19 66 59 24 36 39 43 57 83 62
155 106 221 142 152 176 201 188 184 196 205 201 184 174 162 164 150 158 227 222 232 165 172 272 92 87 101 100 100 93 81 86 93 88 81 70 58 48 45 23 2 8 24 19 23 66 84 73 22 64 34 39 28 28